Yixian-A (R)

operational
NORAD ID: 66999 Int'l Des: 2025-292 Owner: ZHONG Country: CN
LEOCIRCULARRETROGRADESSO

Yixian-A (R)について

説明を読み込み中...

リアルタイム位置

3D地球を読み込み中...

次回通過

高度履歴

Altitude vs Time

uPlot chart will show altitude changes over time

軌道要素

1 66999U 25292G 25345.87534528 .00001612 00000-0 11819-3 0 9993
2 66999 97.6571 58.4362 0014449 282.8480 77.1132 15.04867239 262
Epoch: Dec 11, 2025 • Age: 58 hours

現在のステータス

高度 563.3 km
速度 7.58 km/s
衛星直下点 -46.82°S, 37.45°E
打ち上げ日 Dec 10, 2025
運用期間 4 days
タイプ other

技術仕様

分類 Payload
質量 5.00 kg
乾燥質量 5.00 kg
総質量 5.00 kg
長さ 0.30 m
直径 0.10 m
スパン 0.30 m
形状 Box+2 pan
製造者 ZHONG
バスタイプ Cubesat 3U
フェーズステータス In Orbit
所有者/国 ZHONG/CN

大規模コンステレーション

Loading constellations...